Regional Weather Roundup
Issued by NWS

Home | Current Version | Previous Version | Text Only | Print | Product List | Glossary Off
Versions: 1 2 3 4 5 6 7 8 9 10 11 12 13 14 15 16 17 18 19 20 21 22 23 24 25 26 27 28 29 30 31 32 33 34 35 36 37 38 39 40 41 42 43 44 45 46 47 48 49 50

000
ASUS43 KIND 311309
RWRIN

WEATHER ROUNDUP FOR INDIANA
NATIONAL WEATHER SERVICE INDIANAPOLIS IN
900 AM EDT WED AUG 31 2016

NOTE: "FAIR" INDICATES FEW OR NO CLOUDS BELOW 12,000 FEET WITH NO
SIGNIFICANT WEATHER AND/OR OBSTRUCTIONS TO VISIBILITY.

* - STATION DOES NOT REPORT WEATHER SUCH AS PRECIPITATION OR FOG.

+ - STATION NOT QUALITY CONTROLLED BY THE NATIONAL WEATHER SERVICE.
    USE DATA WITH CAUTION...ESPECIALLY DEWPOINT AND RELATIVE
    HUMIDITY OBSERVATIONS.

INZ001>003-010>013-019-020-311400-
NORTHWEST INDIANA

CITY           SKY/WX    TMP DP  RH WIND       PRES   REMARKS
GARY /AIRPORT/ CLOUDY    75  72  88 NW14      30.05S
KNOX *+        CLOUDY    70  61  73 CALM      30.03S
LA PORTE +     CLOUDY   N/A N/A N/A NW7       30.05R
MICHIGAN CITY+ CLOUDY    72  72 100 MISG      30.04S
MONTICELLO +   CLOUDY    70  67  88 CALM      30.03S FOG
RENSSELAER +   MOSUNNY   68  68 100 CALM      30.05S FOG
VALPARAISO     CLOUDY    73  70  90 N3        30.04S

$$

LMZ046-743>745-311400-
SOUTHERN LAKE MICHIGAN

STATION/POSITION TIME  TEMP    WIND        PRES    WAVE
                       AIR SEA DIR/SP/G            HT
                 (UTC) (F)     (DEG/KT/KT) (MB)    (FT)
BURNS HARBOR     1204   74     350/  5/ 12 1017.6R
MICHIGAN CITY    1200   72     330/ 10/ 10   N/A
5NW MICH CITY    1300   74 72  340/ 10/ 12   N/A     2

$$

INZ004-005-014>016-021>024-311400-
NORTH CENTRAL INDIANA

CITY           SKY/WX    TMP DP  RH WIND       PRES   REMARKS
ELKHART        PTSUNNY  N/A N/A N/A N5        30.03R FOG
GOSHEN         CLOUDY    71  68  90 NE3       30.03S FOG
LOGANSPORT +   CLOUDY    70  70 100 NW3       30.04S FOG
PERU/GRISSOM   CLOUDY    71  71 100 N6        30.02S FOG
ROCHESTER +    CLOUDY    73  73 100 CALM      30.04S FOG
SOUTH BEND     CLOUDY    72  71  97 NW5       30.04R
WARSAW +       CLOUDY    70  70 100 CALM      30.03F FOG

$$

INZ006>009-017-018-025>027-311400-
NORTHEAST INDIANA

CITY           SKY/WX    TMP DP  RH WIND       PRES   REMARKS
ANGOLA *+      CLOUDY    72  63  73 CALM      30.03S
AUBURN +       CLOUDY    72  68  88 CALM      30.03S FOG
FORT WAYNE     CLOUDY    71  70  96 CALM      30.03S FOG
HUNTINGTON +   CLOUDY    69  68  96 CALM      30.02F FOG

$$

INZ028-029-035-036-043>045-051>053-311400-
WEST CENTRAL INDIANA

CITY           SKY/WX    TMP DP  RH WIND       PRES   REMARKS
CRAWFORDSVL +  FOG       69  69 100 CALM      30.04F VSB<1/4
GREENCASTLE +  FOG       70  70 100 CALM      30.05S VSB 1
LAFAYETTE      CLOUDY    73  71  93 N3        30.03S
TERRE HAUTE    CLOUDY    73  70  90 CALM      30.04S FOG

$$

INZ030>032-037>040-046>048-054>057-064-065-311400-
CENTRAL INDIANA

CITY           SKY/WX    TMP DP  RH WIND       PRES   REMARKS
ANDERSON       PTSUNNY   70  70 100 CALM      30.04  FOG
COLUMBUS       PTSUNNY   70  70 100 CALM      30.04S FOG
INDIANAPOLIS   FOG       72  70  93 W6        30.04R VSB 1/2
-EAGLE CREEK   CLOUDY    72  70  93 NW5       30.03F FOG
KOKOMO *+      CLOUDY    70  70 100 NW6       30.04R
MARION +       FOG       69  69 100 NW3       30.04S VSB 1/4
MT COMFORT *+  MOSUNNY   72  70  94 W3        30.04S
SHELBYVILLE    PTSUNNY   73  70  90 W3        30.03S FOG
ZIONSVILLE +   FOG       70  70  99 NW3       30.05S VSB 1/2

$$

INZ033-034-041-042-049-050-058-059-311400-
EAST CENTRAL INDIANA

CITY           SKY/WX    TMP DP  RH WIND       PRES   REMARKS
MUNCIE         MOSUNNY   73  71  93 CALM      30.04S FOG

$$

INZ060-061-067>069-081>083-085>088-311400-
SOUTHWEST INDIANA

CITY           SKY/WX    TMP DP  RH WIND       PRES   REMARKS
EVANSVILLE     SUNNY     76  70  82 N7        30.03S
HUNTINGBURG *+ SUNNY     73  72  94 NW6       30.03S
WASHINGTON +   CLOUDY    72  72 100 MISG      30.03S FOG

$$

INZ062-063-066-070>080-084-089>092-311400-
SOUTH CENTRAL AND SOUTHEAST INDIANA

CITY           SKY/WX    TMP DP  RH WIND       PRES   REMARKS
BLOOMINGTON    MOSUNNY   71  69  93 CALM      30.04S FOG
MADISON *+     PTSUNNY   72  70  94 CALM      30.05S

$$





USA.gov is the U.S. government's official web portal to all federal, state and local government web resources and services.